Weather in Nowy Dwor Mazowiecki

Poland     52°25′52″N   20°42′15″E
temp.,
°C
wind,
m/s
gust,
m/s
humid.,
%
clouds,
%
prec.,
mm/h
press.,
hPa
HPBL,
m
8 december, wed
wed801:00−8e378946 0.0 1018215
04:00−8e48905 0.0 1017211
07:00−8e49875 0.0 1016232
10:00−6e597631 0.0 1017310
13:00−4e5107336 0.0 1015425
16:00−5e512795 0.0 1014371
19:00−6e511785 0.0 1014343
22:00−6e612795 0.0 1014335
9 december, thu
thu901:00−6e510858 0.0 1014331
04:00−6e5119376 0.0 1013344
07:00−5e5129485 0.0 1012352
10:00−3ese5129098 0.0 1013440
13:00−1ese51288100 0.0 1011477
16:00−2e51292100 0.0 1011363
19:00−2e51394100 0.0 1010439
22:000ese51295100 0.0 1009506
10 december, fri
fri1001:00+1ese61294100 0.0 1007602
04:00+1ese51196100 0.1 1005540
07:00+1se51397100 0.7 1004531
10:00+1sse5996100 0.1 1004476
13:00+1s3695100 0.1 1004367
16:00−1sse2297100 0.0 100540
19:00−1ssw0098100 0.0 100511
22:00−1se0098100 0.0 100611
11 december, sat
sat1101:00−2w1198100 0.0 100810
04:00−2w2298100 0.0 100945
07:00−3wnw1198100 0.0 101121
10:00−1nw0191100 0.0 101390
13:000nnw118745 0.0 1014157
16:00−2wnw11965 0.0 101610
19:00−2ene009766 0.0 101710
22:00−3sw2396100 0.0 101944
12 december, sun
sun1201:00−2wsw249694 0.0 102086
04:00−4wsw129717 0.0 102235
07:00−4w229721 0.0 102455
10:00−3wnw239264 0.0 1026171
13:00−1nw2487100 0.0 1026335
16:00−1nw2492100 0.0 1026168
19:00−1nnw2584100 0.0 1027178
22:000n4574100 0.0 1027218